Regional Weather Roundup
Issued by NWS

Home | Current Version | Previous Version | Text Only | Print | Product List | Glossary On
Versions: 1 2 3 4 5 6 7 8 9 10 11 12 13 14 15 16 17 18 19 20 21 22 23 24 25 26 27 28 29 30 31 32 33 34 35 36 37 38 39 40 41 42 43 44 45 46 47 48 49 50
000
ASUS43 KTOP 261259
RWRKS

WEATHER ROUNDUP FOR KANSAS
NATIONAL WEATHER SERVICE GOODLAND KS
800 AM CDT SAT JUL 26 2014

NOTE:  "FAIR" INDICATES FEW OR NO CLOUDS BELOW 12,000 FEET WITH NO
SIGNIFICANT WEATHER AND/OR OBSTRUCTIONS TO VISIBILITY.

KSZ001>006-013>018-027>032-041>047-261400-
NORTHWEST KANSAS

CITY           SKY/WX    TMP DP  RH WIND       PRES   REMARKS
GOODLAND       MOSUNNY   71  63  75 W7        29.99R
HAYS           CLOUDY    73  68  83 NW6       29.86R
HILL CITY      MOSUNNY   73  67  81 W3        29.90R
RUSSELL        CLOUDY    78  65  63 S9        29.83R
$$

KSZ061>065-074>080-084>089-261400-
SOUTHWEST KANSAS

CITY           SKY/WX    TMP DP  RH WIND       PRES   REMARKS
DODGE CITY     PTSUNNY   78  53  41 SW12      29.90R
ELKHART          N/A     77  56  48 W6          N/A
GARDEN CITY    PTSUNNY   71  63  75 NW8       29.93R
GREAT BEND     CLOUDY    75  61  60 S7        29.84R
LIBERAL        PTSUNNY   79  52  38 SW13      29.97R
$$

KSZ066>073-081>083-090>101-261400-
SOUTHEAST KANSAS

CITY           SKY/WX    TMP DP  RH WIND       PRES   REMARKS
CHANUTE        MOSUNNY   77  71  82 S17       29.88S
COFFEYVILLE    SUNNY     77  72  84 S13       29.91R
HUTCHINSON     CLOUDY    79  61  53 SW6       29.87R
MEDICINE LODGE   N/A     77  61  57 S8        29.87R
NEWTON         PTSUNNY   79  61  53 S16       29.90R
PARSONS        SUNNY     77  71  82 S12       29.91R
WICHITA INTL   PTSUNNY   78  65  63 S15       29.86R
WICHITA JABRA  PTSUNNY   79  66  64 S13       29.87R
WINFIELD       MOSUNNY   78  68  71 S13       29.90S
$$

KSZ007>012-019>026-033>040-048>060-102>105-261400-
NORTHEAST KANSAS

CITY           SKY/WX    TMP DP  RH WIND       PRES   REMARKS
CONCORDIA      CLOUDY    77  72  84 SW5       29.82R
EMPORIA        CLOUDY    80  65  59 SW15      29.84R
LAWRENCE       PTSUNNY   82  69  64 S9        29.81S
MANHATTAN      CLOUDY    83  62  49 SW17      29.80R
OLATHE IND     PTSUNNY   80  70  71 S15       29.85R
OLATHE EXE     CLOUDY    80  70  71 SW10      29.84R
SALINA         CLOUDY    80  60  50 S6        29.83R
TOPEKA BILLARD CLOUDY    83  67  58 SW6       29.80R
TOPEKA FORBES  PTSUNNY   80  67  64 S9        29.81R
$$


USA.gov is the U.S. government's official web portal to all federal, state and local government web resources and services.